METEOR 1-16 DEB, 42999

Orbit data source: Space-Track

METEOR 1-16 DEB, 42999 is space debris in LEO originally from a launch on Tue, 05 Mar 1974 UTC launched from the Plesetsk Missile And Space Complex (PKMTR). Debris objects in space refer to the collection of defunct objects orbiting the Earth. Examples of debris include non-operational satellites, rocket bodies, and fragments generated from explosions, collisions, or faulty payload assembly.

Loading next visibility...
Identifier
42999, 1974-011C
Orbit
LEO
Country
Flag of CISCIS
Related business
Manufacturer
Unknown
Mission
Spacecraft
Bus & Motor
Unknown
Mass
Unknown
Launch date (UTC)
1974-03-05 (52 years ago)
Launch vehicle
Unknown
Launch site
Plesetsk Missile And Space Complex (PKMTR)
Object type
Payload
Rocket body
Debris
Shape & HBR
Unknown shape, 0.1 m
Radar Cross Section
Small (<0.1 m²)

Expand to show TLE details & history
Last TLE update: 2 days ago

TLE from 2 days ago
0 METEOR 1-16 DEB
1 42999U 74011C   26171.21296147  .00007617  00000-0  22009-2 0  9991
2 42999  81.2337 342.8399 0031182 273.6166  86.1458 14.44225167515215
Epoch: 2026-06-20T05:06Z
TLE epoch observation values (Epoch: 2026-06-20T05:06:39.871Z)
Latitude
-0.00003°
Longitude
-2.25705°
Altitude
746.094 km
Speed
7.482 km/s
True Right ascension
22h 51m 21s
True Declination
0° 00' 00"
Sunlit
Object was in daylight at epoch
Visualization orbit readout
Latitude
Unknown
Longitude
Unknown
Altitude
Unknown
Speed
Unknown
Apparent Right ascension
Unknown
Apparent Declination
Unknown
Sunlit
N/A
Visualization observer readout
Local Sidereal Time
21:25:56
Azimuth
Unknown
Elevation
Unknown
Doppler factor
Unknown
Orbital elements
Apogee altitude
763.903 km
Perigee altitude
719.5 km
Semi-major axis
7,119.839 km
Eccentricity
0.00312
Inclination
81.2337°
RAAN
342.8399°
Arg. of periapsis
273.6166°
True anomaly
86.5024°
Mean anomaly
86.1458°
Eccentric anomaly
86.32409°
Mean motion
3.61275 °/min
Orbital period
99.65 mins
BSTAR
0.0022009
Loading maneuver chart data...
Computing Atmospheric mass density...
Loading historical data...
Loading historical data...
Loading historical data...
Loading historical data...
Loading historical data...
Loading historical data...
Loading historical data...
Other satellites on launch #11 in the year 1974 (1974-03-05 UTC)

Documentation

Showing up to 5 results
|